Weather History for Bakersfield, CA

Change the Weather History Date:

Wednesday, January 25, 2012

  Actual Average Record
Temperature  
Mean Temperature 51 °F 49 °F  
Max Temperature 62 °F 58 °F 77 °F (1924)
Min Temperature 40 °F 40 °F 22 °F (1893)
Degree Days  
Heating Degree Days 14    
Month to date heating degree days 340  
Since 1 July heating degree days 1325  
Cooling Degree Days 0    
Month to date cooling degree days 0  
Year to date cooling degree days 0  
Growing Degree Days 2 (Base 50)    
Moisture  
Dew Point 42 °F    
Average Humidity 72    
Maximum Humidity 89    
Minimum Humidity 55    
Precipitation  
Precipitation 0.00 in 0.03 in 1.42 in (1999)
Month to date precipitation 0.44 0.92  
Year to date precipitation 0.44 0.92  
Since 1 July precipitation 1.75 3.00  
Snow  
Snow 0.00 in - - ()
Month to date snowfall 0.0  
Since 1 July snowfall 0.0  
Snow Depth 0.00 in    
Sea Level Pressure  
Sea Level Pressure 30.39 in    
Wind  
Wind Speed 2 mph (South)    
Max Wind Speed 10 mph    
Max Gust Speed 17 mph    
Visibility 7 miles    
Events      
T = Trace of Precipitation, MM = Missing Value Source: NWS Daily Summary

Daily Weather History Graph

Daily Weather History Graph

Search for Another Location

Airport:

Trip Planner

Search our weather history database for the weather conditions in past years. The results will help you decide how hot, cold, wet, or windy it might be!

Date:

Astronomy

Jan. 25, 2012 Rise Set
Actual Time 7:00 AM PST 5:16 PM PST
Civil Twilight 6:33 AM PST 5:43 PM PST
Nautical Twilight 6:02 AM PST 6:14 PM PST
Astronomical Twilight 5:32 AM PST 6:44 PM PST
Moon 8:09 AM PST (1/25) 8:06 PM PST (1/25)
Length of Visible Light 11h 10m
Length of Day
10h 15m
Waxing Crescent, 7% of the Moon is Illuminated
Jan 25
Waxing Crescent
Jan 30
First Quarter
Feb 7
Full
Feb 14
Last Quarter
Feb 21
New

Hourly Weather History & Observations

Time (PST) Temp. Windchill Dew Point Humidity Pressure Visibility Wind Dir Wind Speed Gust Speed Precip Events Conditions
12:54 AM 45.0 °F - 39.9 °F 82% 30.42 in 7.0 mi Calm Calm - N/A   Clear
1:54 AM 42.1 °F - 39.0 °F 89% 30.43 in 6.0 mi Calm Calm - N/A   Clear
2:54 AM 42.1 °F - 37.9 °F 85% 30.43 in 6.0 mi Calm Calm - N/A   Clear
3:54 AM 44.1 °F - 39.9 °F 85% 30.41 in 8.0 mi Calm Calm - N/A   Clear
4:54 AM 46.0 °F 43.9 °F 41.0 °F 83% 30.41 in 7.0 mi ESE 4.6 mph - N/A   Clear
5:54 AM 43.0 °F 40.3 °F 37.9 °F 82% 30.43 in 7.0 mi ENE 4.6 mph - N/A   Clear
6:54 AM 42.1 °F - 39.0 °F 89% 30.43 in 5.0 mi Calm Calm - N/A   Clear
7:54 AM 45.0 °F 43.5 °F 39.9 °F 82% 30.43 in 7.0 mi SE 3.5 mph - N/A   Clear
8:54 AM 48.0 °F - 43.0 °F 83% 30.43 in 5.0 mi Calm Calm - N/A   Haze
9:54 AM 52.0 °F - 44.1 °F 74% 30.44 in 5.0 mi Calm Calm - N/A   Haze
10:54 AM 55.0 °F - 45.0 °F 69% 30.44 in 5.0 mi West 3.5 mph - N/A   Haze
11:54 AM 57.9 °F - 44.1 °F 60% 30.41 in 8.0 mi West 6.9 mph - N/A   Clear
12:54 PM 60.1 °F - 44.1 °F 55% 30.38 in 9.0 mi WSW 6.9 mph - N/A   Clear
1:54 PM 60.1 °F - 44.1 °F 55% 30.36 in 9.0 mi Calm Calm - N/A   Clear
2:54 PM 61.0 °F - 44.1 °F 54% 30.35 in 9.0 mi SW 4.6 mph - N/A   Clear
3:54 PM 61.0 °F - 44.1 °F 54% 30.33 in 9.0 mi South 4.6 mph - N/A   Clear
4:54 PM 60.1 °F - 44.1 °F 55% 30.34 in 8.0 mi SW 4.6 mph - N/A   Clear
5:54 PM 57.0 °F - 45.0 °F 64% 30.34 in 9.0 mi Calm Calm - N/A   Clear
6:54 PM 53.1 °F - 43.0 °F 69% 30.36 in 8.0 mi Calm Calm - N/A   Clear
7:54 PM 48.9 °F - 43.0 °F 80% 30.36 in 7.0 mi ENE 5.8 mph - N/A   Clear
8:54 PM 48.9 °F - 43.0 °F 80% 30.36 in 6.0 mi Calm Calm - N/A   Haze
9:54 PM 48.9 °F - 43.0 °F 80% 30.36 in 6.0 mi Calm Calm - N/A   Haze
10:54 PM 50.0 °F - 44.1 °F 80% 30.35 in 6.0 mi ENE 4.6 mph - N/A   Haze
11:54 PM 46.0 °F - 41.0 °F 83% 30.35 in 5.0 mi Calm Calm - N/A   Haze